Boom en verlichtingspaal belanden op auto door storm

StormCell - Onweer anders bekeken

Welkom op Stormcell.be, dé website waar onweer al sinds 2011 anders wordt bekeken.

Op onze site vindt de bezoeker duidelijke weermodellen, data van het StormCell weerstation in regio Ninove (België) én kan men het onweer live volgen via lightningmaps.org.

We beschikken over een Facebook pagina waar weer gerelateerde berichten worden gedeeld en waar we zelf ook waarschuwingen voor onweer of noodweer uitsturen indien nodig.

U leest het goed: indien nodig, dus geen onheilspellende berichten als de storm of het onweer slechts in een glas water zal woeden. We zijn niet uit op sensatie of het zaaien van angst. We bekijken het onweer met klare kijk op de feiten. 

[Source: ADDS]
METAR
EBBR 262150Z 23011KT 9999 -RA SCT005 BKN007 14/13 Q1011 TEMPO 4000 -RADZ BKN005 =
EBBR 261702Z 2618/2724 24012KT 9999 SCT030 BECMG 2619/2621 SCT008 BKN012 TEMPO 2621/2704 3000 RADZ BKN005 BECMG 2704/2706 SCT040
TAF
EBBR 261702Z 2618/2724 24012KT 9999 SCT030 BECMG 2619/2621 SCT008 BKN012 TEMPO 2621/2704 3000 RADZ BKN005 BECMG 2704/2706 SCT040 =

Visweer Vlissingen

StormCell is een non profit organisatie zonder oogmerk tot sensatie